Terminal Aerodrome Forecast
Issued by NWS St Louis, MO

Home | Current Version | Previous Version | Text Only | Print | Product List | Glossary On
Versions: 1 2 3 4 5 6 7 8 9 10 11 12 13 14 15 16 17 18 19 20 21 22 23 24 25 26 27 28 29 30 31 32
000
FTUS43 KLSX 180300 AAA
TAFSTL
TAF AMD
KSTL 180308Z 1803/1906 05005KT P6SM OVC080
     FM181100 08004KT 6SM -SN OVC040
     FM181400 09004KT 1SM -SN BR OVC010
     FM181800 09004KT 5SM -DZ BR OVC007
     FM182300 08003KT 5SM BR OVC009=

USA.gov is the U.S. government's official web portal to all federal, state and local government web resources and services.